Regional Weather Roundup
Issued by NWS

Home | Current Version | Previous Version | Text Only | Print | Product List | Glossary On
Versions: 1 2 3 4 5 6 7 8 9 10 11 12 13 14 15 16 17 18 19 20 21 22 23 24 25 26 27 28 29 30 31 32 33 34 35 36 37 38 39 40 41 42 43 44 45 46 47 48 49 50
000
ASUS46 KLOX 020412
RWRCA

SOUTHERN CALIFORNIA WEATHER ROUNDUP
NATIONAL WEATHER SERVICE OXNARD CALIFORNIA
900 PM PDT WED OCT 01 2014

NOTE: "FAIR" INDICATES FEW OR NO CLOUDS BELOW 12,000 FEET WITH NO
SIGNIFICANT WEATHER AND/OR OBSTRUCTIONS TO VISIBILITY.

  -  STATIONS PRECEEDED BY AN ASTERISK (*) ARE NOT NWS OR FAA
     STATIONS AND ARE NOT SUBJECT TO NWS AND FAA QUALITY CONTROL.

CAZ041-042-087-020500-
LA AND ORANGE COUNTY COASTAL AREAS


CITY           SKY/WX    TMP DP  RH WIND       PRES   REMARKS
L.A. DOWNTOWN  CLEAR     68  62  81 CALM      29.85R
L.A. AIRPORT   CLEAR     67  63  87 W6        29.85R
LONG BEACH     CLEAR     70  63  78 W6        29.85R

CITY           SKY/WX    TMP DP  RH WIND       PRES   REMARKS
AVALON           N/A     63 N/A N/A S5          N/A
FULLERTON      CLEAR     72  62  71 S3        29.84R
*GETTY CENTER    N/A    N/A N/A N/A E3          N/A
HAWTHORNE      CLEAR     69  63  81 S5        29.85R
*LEO CARRILLO    N/A     65  60  85 NE3         N/A
*LOS ALAMITOS  CLEAR     69  62  77 S3        29.85R
*REDONDO BEACH   N/A     66  62  86 CALM      29.85R
SANTA ANA      CLEAR     72  62  71 SW3       29.85R
STA MONICA APT CLOUDY    68  63  84 SW5       29.85R
*STA MON PIER    N/A     67  64  91 SE1       29.84R
*UCLA            N/A     64  61  88 CALM      29.83R

$$

CAZ547-548-048-020500-
LA COUNTY VALLEYS AND INLAND EMPIRE


CITY           SKY/WX    TMP DP  RH WIND       PRES   REMARKS
BURBANK        CLEAR     71  59  65 SE5       29.85R
VAN NUYS       CLEAR     73  58  59 SE5       29.85R

CITY           SKY/WX    TMP DP  RH WIND       PRES   REMARKS
CORONA AIRPORT CLEAR     67  58  72 CALM      29.86R
*CHATSWORTH      N/A     73  58  59 CALM      29.82R
CHINO          CLEAR     70  59  68 SW3       29.87R
*CLAREMONT       N/A     64  47  53 CALM        N/A
MARCH AFB      CLEAR     70  57  63 W3        29.90R
*NORTHRIDGE      N/A     72  52  49 CALM        N/A
ONTARIO        CLEAR     73  59  61 SW5       29.86R
*PASADENA        N/A     72  59  64 CALM        N/A
POMONA         CLEAR     70  57  64 W7        29.89R
RIVERSIDE      CLEAR     73  58  59 CALM      29.87R
SAN BERNARDINO NOT AVBL
*SAN GABRIEL     N/A     71  60  67 CALM      29.81R
*SAN RAFAEL HI   N/A     68  53  58 SW7         N/A
*SAUGUS          N/A     73  54  51 SW5         N/A
*WHITEMAN AP   NOT AVBL
*WHITTIER HILL   N/A     66  62  86 CALM        N/A
*WOODLAND HILL   N/A     70  52  52 E1          N/A

$$

CAZ054-055-020500-
LA AND SAN BERNARDINO COUNTY MOUNTAINS


CITY           SKY/WX    TMP DP  RH WIND       PRES   REMARKS
*ACTON           N/A     77  29  17 N9G21       N/A
*BIG BEAR AIRP CLEAR     45  27  49 CALM      30.20R
*BIG PINES       N/A     54  28  36 SE2         N/A
*CHILAO          N/A     65  28  25 NE15        N/A
MT WILSON NWS    N/A     59  27  29 MISG        N/A
SANDBERG       CLEAR     69  29  22 CALM      30.09R
*WARM SPRINGS    N/A     70  31  23 E17         N/A

$$

CAZ028-029-059-060-099-020500-
ANTELOPE VALLEY AND SURROUNDING AREAS


CITY           SKY/WX    TMP DP  RH WIND       PRES   REMARKS
LANCASTER      CLEAR     69  29  22 NE10      29.96R
PALMDALE       CLEAR     70  31  23 E12       29.97R
*POPPY PARK      N/A     69  29  22 SE2         N/A

CITY           SKY/WX    TMP DP  RH WIND       PRES   REMARKS
29 PALMS       CLEAR     78  33  19 NW5       30.00R
BARSTOW/DAGGET CLEAR     75  22  13 VRB5      29.95R
BISHOP         CLEAR     61  15  16 NW6       30.10R
CHINA LAKE     CLEAR     69  22  16 S8        29.98R
EDWARDS AFB    CLEAR     73  23  15 E8        29.95R
MOJAVE         FAIR      72  28  20 NE9       30.00R
NEEDLES        CLEAR     81  27  14 N12       29.88R
VICTORVILLE    CLEAR     70  28  21 NE7       30.01R

$$

CAZ039-040-020500-
VENTURA AND SANTA BARBARA COUNTY COAST


CITY           SKY/WX    TMP DP  RH WIND       PRES   REMARKS
CAMARILLO      CLEAR     67  62  84 CALM      29.83R
NWS OXNARD       N/A     67  62  83 CALM      29.83S
OXNARD AIRPORT PTCLDY    67  63  87 NW3       29.83R
*POINT MUGU    CLEAR     70  63  78 NW3       29.84R
SBA APT/GOLETA CLEAR     66  62  87 CALM      29.83R
*SANTA BARBARA   N/A     70  62  75 CALM      29.91R
*VENTURA         N/A     67  60  79 CALM      29.87S

$$

CAZ044-045-020500-
VENTURA COUNTY VALLEYS


CITY           SKY/WX    TMP DP  RH WIND       PRES   REMARKS
*SIMI VALLEY     N/A     67  57  72 CALM      29.81R
*OJAI            N/A     65  55  70 CALM      29.79S
*FILLMORE        N/A     65  56  71 CALM      29.76R

$$

CAZ053-020500-
VENTURA COUNTY MOUNTAINS


CITY           SKY/WX    TMP DP  RH WIND       PRES   REMARKS
*LOCKWOOD VLY    N/A     54  28  37 MISG        N/A
*ROSE VALLEY     N/A     59  34  38 MISG        N/A

$$

CAZ034-035-036-020500-
CENTRAL COAST AND SANTA YNEZ VALLEY


CITY           SKY/WX    TMP DP  RH WIND       PRES   REMARKS
SAN LUIS OBISP CLEAR     69  46  43 W6        29.86R
SANTA MARIA    CLEAR     67  47  48 S3        29.86R

CITY           SKY/WX    TMP DP  RH WIND       PRES   REMARKS
*CAL POLY SLO    N/A     68  50  52 SW1G13      N/A
*LOMPOC        CLEAR     63  48  59 E5        29.87R
*PISMO BEACH     N/A     73  46  38 NE2       29.85R
*SANTA YNEZ    FAIR      64  45  48 CALM      29.88R

$$

CAZ037-038-051-020500-
SAN LUIS OBISPO COUNTY INTERIOR AND CUYAMA VALLEY


CITY           SKY/WX    TMP DP  RH WIND       PRES   REMARKS
*CUYAMA          N/A     66  42  42 S8        29.90R
PASO ROBLES    CLEAR     73  40  30 CALM      29.90R

$$

CAZ032-033-061-020500-
SOUTHERN DESERTS


CITY           SKY/WX    TMP DP  RH WIND       PRES   REMARKS
BLYTHE         CLEAR     82  47  29 NW7       29.80R
IMPERIAL       CLEAR     78  44  29 CALM      29.77R
PALM SPRINGS   CLEAR     89  35  14 NW7       29.84R
THERMAL        CLEAR     71  51  49 CALM      29.76R

$$

ELSEWHERE ACROSS THE WESTERN UNITED STATES AND MEXICO


CITY           SKY/WX    TMP DP  RH WIND       PRES   REMARKS
DENVER, CO     CLOUDY    44  41  89 W8        30.07R
GRAND CANYON,  CLEAR     45  29  53 CALM      30.16R
HONOLULU, HI   PTCLDY    82  72  69 NW5       29.89R
KAHULUI, MAUI  PTCLDY    82  70  65 NE13      29.89R
LAKE TAHOE, CA CLEAR     42  32  67 S5        30.23R
LAS VEGAS, NV  CLEAR     74  21  13 N7        29.97R
MAMMOTH LAKES, FAIR      43  10  26 CALM      30.26R
MEXICO CITY, M MOCLDY    64  52  63 S2        30.24R
PHOENIX, AZ    CLEAR     80  51  36 CALM      29.81R
PORTLAND, OR   PTCLDY    59  50  72 NW3       30.19S
RENO, NV       CLEAR     56  25  30 S3        30.20R
SALT LAKE CITY PTCLDY    46  38  73 S7        30.20R
SAN DIEGO, CA  PTCLDY    70  62  76 N3        29.86R
SAN FRANCISCO, CLEAR     73  43  33 W9        29.91R
SAN JOSE, CA   CLEAR     68  46  45 W9        29.91R
SEATTLE, WA    MOCLDY    59  46  62 NE10      30.19R
TIJUANA, MEX   CLEAR     64  59  82 CALM      29.88R

$$

STATION/POSITION TIME  TEMP    WIND        PRES    VSBY  WAVE
                       AIR SEA DIR/SP/G                  HT/PER
                 (UTC) (F)     (DEG/KT/KT) (MB)    (MI)  (FT/S)
POINT ARGUELLO B NOT AVBL
WEST SANTA BARBA 0400   68 64  320/ 12/ 14 1008.6R         8/11
POINT CONCEPTION NOT AVBL
EAST SANTA BARBA 0400   65 67  200/  4     1010.1
SANTA MONICA BAY 0400   67 70  220/  4/  6 1010.4R         3/11


USA.gov is the U.S. government's official web portal to all federal, state and local government web resources and services.